Regional Weather Roundup
Issued by NWS

Home | Current Version | Previous Version | Graphics & Text | Print | Product List | Glossary Off
Versions: 1 2 3 4 5 6 7 8 9 10 11 12 13 14 15 16 17 18 19 20 21 22 23 24 25 26 27 28 29 30 31 32 33 34 35 36 37 38 39 40 41 42 43 44 45 46 47 48 49 50

000
ASUS43 KMKX 010311
RWRWI

WISCONSIN REGIONAL WEATHER ROUNDUP
NATIONAL WEATHER SERVICE MILWAUKEE/SULLIVAN WI
1000 PM CDT MON AUG 31 2015

NOTE: "FAIR" INDICATES FEW OR NO CLOUDS BELOW 12,000 FEET WITH NO
SIGNIFICANT WEATHER AND/OR OBSTRUCTIONS TO VISIBILITY.

WIZ001-002-006>008-014>016-023>028-010400-
NORTHWEST WISCONSIN

CITY           SKY/WX    TMP DP  RH WIND       PRES   REMARKS
SUPERIOR ARPT  MOCLDY    73  71  91 S5        29.86F
ASHLAND        CLEAR     73  71  93 S6        29.90S
HAYWARD        PTCLDY    72  69  90 S6        29.93S
SIREN          MOCLDY    73  70  89 S3        29.91S
CUMBERLAND     MOCLDY    70  68  94 S5        29.94S
RICE LAKE      MOCLDY    72  69  90 SE5       29.95S
CHETEK         CLEAR    N/A N/A N/A MISG      29.94S
LADYSMITH      MOCLDY    73  69  90 S5        29.98R
EAU CLAIRE     CLEAR     74  69  85 S7        29.94R
MENOMONIE      CLEAR     72  70  94 SE5       29.94R FOG
NEW RICHMOND   CLEAR     73  71  91 S6        29.93S
OSCEOLA        MOCLDY    73  73 100 SE5       29.94S
$$

WIZ003>005-009-010-017-018-010400-
NORTH CENTRAL WISCONSIN

CITY           SKY/WX    TMP DP  RH WIND       PRES   REMARKS
MANITOWISH WTR CLEAR     67  67 100 S6        29.98S
ARBOR VITAE    CLEAR     69  67  92 S6        29.99S
WOODRUFF       CLEAR     69  67  92 S6        29.99S
RHINELANDER    CLEAR     68  65  90 SW3       30.01S
EAGLE RIVER    CLEAR     65  65 100 CALM      30.00S FOG
LAND O LAKES   CLEAR     67  65  90 S3        30.00S
PHILLIPS       CLEAR     69  68  96 S7        29.98R
TOMAHAWK       CLEAR     65  64  96 CALM      30.01R FOG
MEDFORD        CLEAR     67  66  97 S6        30.00R
MERRILL        CLEAR     67  67 100 CALM      30.00S FOG
$$

WIZ029-030-035-036-043>047-010400-
CENTRAL WISCONSIN

CITY           SKY/WX    TMP DP  RH WIND       PRES   REMARKS
WAUSAU         CLEAR     70  67  90 S5        29.98S
MOSINEE        NOT AVBL
MARSHFIELD     CLEAR     68  65  90 S6        30.00R FOG
STEVENS POINT  CLEAR     67  66  96 CALM      30.01S
WAUPACA        FOG       68  68  99 CALM      30.00S VSB 3/4
WAUTOMA        FOG       66  66 100 CALM      30.01S VSB 1/4
WISC RAPIDS    LGT RAIN  71  66  84 S5        30.01R
CAMP DOUGLAS   PTCLDY    70  70 100 SE3       29.99R
$$

WIZ011>013-019>022-031-037>040-048>050-010400-
NORTHEAST WISCONSIN

CITY           SKY/WX    TMP DP  RH WIND       PRES   REMARKS
ANTIGO         CLEAR     64  64  99 S5        30.02S FOG
SHAWANO        CLEAR     72  68  89 CALM      29.99S
OCONTO         CLEAR     68  68 100 CALM      29.99S
STURGEON BAY   CLEAR     64  61  88 S8        30.02S
GREEN BAY      CLEAR     69  67  93 S5        30.00R FOG
MANITOWOC      CLEAR     57  56  96 MISG      30.03S
APPLETON       PTCLDY    70  68  94 VRB5      30.00R
CLINTONVILLE   CLEAR     64  63  94 CALM      29.99S FOG
OSHKOSH        CLEAR     66  65  96 S5        30.01R FOG
$$

WIZ032>034-041-042-053>061-010400-
SOUTHWEST WISCONSIN

CITY           SKY/WX    TMP DP  RH WIND       PRES   REMARKS
LA CROSSE      CLEAR     74  70  87 S3        29.96R
SPARTA         CLEAR     68  66  92 CALM      29.98S
VIROQUA          N/A     72  72  99 SE6       30.01R
BOSCOBEL       CLEAR     72  69  90 CALM      29.98S
PRAIRIE DU CHI CLEAR     73  69  86 CALM      29.98R
PLATTEVILLE    CLEAR     73  70  91 SE7       30.01S
$$

WIZ056-057-062-063-064-067-068-010400-
SOUTH CENTRAL WISCONSIN

CITY           SKY/WX    TMP DP  RH WIND       PRES   REMARKS
REEDSBURG      CLEAR     70  68  93 CALM      30.00R
BARABOO/DELLS  CLEAR     69  65  90 S7        30.00S
LONE ROCK      CLEAR     70  67  90 E5        30.00S
MINERAL POINT  CLEAR     73  68  83 SE3       30.02S
MADISON        CLEAR     70  67  90 CALM      30.01S
MIDDLETON      CLEAR     68  68  99 CALM      30.02S
WATERTOWN      CLEAR     69  69 100 CALM      30.02S
MONROE         CLEAR     73  68  83 S8        30.03R
JANESVILLE     CLEAR     72  68  88 SE5       30.02R
$$

WIZ051-052-058>065-066-070>072-010400-
SOUTHEAST WISCONSIN

CITY           SKY/WX    TMP DP  RH WIND       PRES   REMARKS
MILWAUKEE      PTCLDY    70  65  84 S6        30.03S
WAUKESHA       CLEAR     68  66  94 S6        30.05R
MILWAUKEE/TIMM CLEAR     70  63  78 S3        30.04R
RACINE         CLEAR     69  65  86 S6        30.05S
BURLINGTON     FOG       65  64  98 CALM      30.04R VSB 1/4
KENOSHA        CLEAR     68  64  87 SE3       30.04S
FOND DU LAC    PTCLDY    67  66  97 S3        30.02R FOG
SHEBOYGAN      CLEAR     63  62  97 S3        30.03R FOG
WEST BEND      CLEAR     64  63  94 CALM      30.03S FOG
JUNEAU         CLEAR     69  67  93 CALM      30.04R
$$

LSZ147-162-010400-
LAKE SUPERIOR

STATION/POSITION TIME  TEMP    WIND        PRES    WAVE
                       AIR SEA DIR/SP/G            HT/PER
                 (UTC) (F)     (DEG/KT/KT) (MB)    (FT/S)
W MID LAKE BUOY  0250   63 55  200/ 12/ 14 1011.3R   1
DEVILS ISLAND    0300   74     190/ 11/ 15 1011.1R
PORT WING        0200   76     180/  8/ 12 1011.2S
SAXON HARBOR     0200   75     190/  4/  9 1011.9R
$$

LMZ867-665-643>646-010400-
LAKE MICHIGAN

STATION/POSITION TIME  TEMP    WIND        PRES    WAVE
                       AIR SEA DIR/SP/G            HT/PER
                 (UTC) (F)     (DEG/KT/KT) (MB)    (FT/S)
CHAMBERS ISLAND  0200   69     160/  3/  6 1015.6R
S GREEN BAY BUOY 0100   67 64  180/  6/  8 1016.5R
N MID LAKE BUOY  0250   65 65  210/ 16/ 17 1015.5R   3/ 4
NORTHPORT PIER   0300   63     150/  5/  8 1015.6S
KEWAUNEE LAKESHO 0200   50     170/  3/  4 1015.3R
SHEBOYGAN LAKESH 0300   60     180/ 11/ 11 1017.0R
PORT WASHINGTON  0200   59      CALM  /  2 1017.3S
ATWATER BUOY     0300   56 52  180/  6/  6 1018.2R
MILWAUKEE LAKESH 0210   62     210/  1/  2   N/A
S MID LAKE BUOY  0250   70 70  130/  6/  6 1016.9
KENOSHA   LAKESH 0300   68     190/  8/ 10 1016.9R
$$

TC  - TEMPERATURE IN CELSIUS
VSB - VISIBILITY IN STATUTE MILES
WCI - WIND CHILL INDEX
HX  - HEAT INDEX




USA.gov is the U.S. government's official web portal to all federal, state and local government web resources and services.